Weather History for Broomfield, CO

Change the Weather History Date:

Monday, January 13, 2014

  Actual Average Record
Temperature  
Mean Temperature 38 °F -  
Max Temperature 46 °F 44 °F 64 °F (1990)
Min Temperature 30 °F 24 °F -7 °F (1997)
Degree Days  
Heating Degree Days 27    
Moisture  
Dew Point 9 °F    
Average Humidity 30    
Maximum Humidity 38    
Minimum Humidity 25    
Precipitation  
Precipitation 0.00 in - - ()
Sea Level Pressure  
Sea Level Pressure 29.94 in    
Wind  
Wind Speed 19 mph (West)    
Max Wind Speed 45 mph    
Max Gust Speed 59 mph    
Visibility 10 miles    
Events      
Averages and records for this station are not official NWS values.
T = Trace of Precipitation, MM = Missing Value Source: NWS Daily Summary

Daily Weather History Graph

Daily Weather History Graph

Search for Another Location

Airport:

Trip Planner

Search our weather history database for the weather conditions in past years. The results will help you decide how hot, cold, wet, or windy it might be!

Date:

Astronomy

Jan. 13, 2014 Rise Set
Actual Time 7:20 AM MST 4:57 PM MST
Civil Twilight 6:51 AM MST 5:27 PM MST
Nautical Twilight 6:17 AM MST 6:01 PM MST
Astronomical Twilight 5:45 AM MST 6:33 PM MST
Moon 3:15 PM MST (1/13) 5:11 AM MST (1/13)
Length of Visible Light 10h 36m
Length of Day
9h 37m
Waxing Gibbous, 95% of the Moon is Illuminated
Jan 13
Waxing Gibbous
Jan 15
Full
Jan 23
Last Quarter
Jan 30
New
Feb 6
First Quarter

Hourly Weather History & Observations

Time (MST) Temp. Windchill Dew Point Humidity Pressure Visibility Wind Dir Wind Speed Gust Speed Precip Events Conditions
12:15 AM 30.2 °F 20.8 °F 5.0 °F 34% 29.93 in 10.0 mi West 11.5 mph - N/A   Clear
12:33 AM 32.0 °F 21.2 °F 5.0 °F 32% 29.93 in 10.0 mi West 16.1 mph - N/A   Clear
12:55 AM 32.0 °F 20.5 °F 5.0 °F 32% 29.92 in 10.0 mi West 18.4 mph 24.2 mph N/A   Clear
1:12 AM 32.0 °F 19.8 °F 3.2 °F 30% 29.92 in 10.0 mi WNW 20.7 mph 34.5 mph N/A   Clear
1:35 AM 32.0 °F 22.5 °F 5.0 °F 32% 29.93 in 10.0 mi WNW 12.7 mph - N/A   Clear
1:52 AM 32.0 °F 19.5 °F 5.0 °F 32% 29.94 in 10.0 mi West 21.9 mph 26.5 mph N/A   Clear
2:13 AM 32.0 °F 20.8 °F 5.0 °F 32% 29.94 in 10.0 mi West 17.3 mph 25.3 mph N/A   Clear
2:33 AM 32.0 °F 20.8 °F 6.8 °F 35% 29.93 in 10.0 mi West 17.3 mph 29.9 mph N/A   Clear
2:53 AM 33.8 °F 21.6 °F 5.0 °F 30% 29.93 in 10.0 mi West 23.0 mph 34.5 mph N/A   Clear
3:13 AM 33.8 °F 25.3 °F 5.0 °F 30% 29.93 in 10.0 mi WSW 11.5 mph 31.1 mph N/A   Clear
3:35 AM 32.0 °F 20.8 °F 5.0 °F 32% 29.92 in 10.0 mi West 17.3 mph - N/A   Clear
3:52 AM 33.8 °F 24.8 °F 6.8 °F 32% 29.92 in 10.0 mi West 12.7 mph 26.5 mph N/A   Clear
4:14 AM 33.8 °F 23.9 °F 6.8 °F 32% 29.92 in 10.0 mi WNW 15.0 mph 29.9 mph N/A   Clear
4:33 AM 32.0 °F 23.0 °F 6.8 °F 35% 29.92 in 10.0 mi West 11.5 mph - N/A   Clear
4:52 AM 33.8 °F 27.0 °F 6.8 °F 32% 29.92 in 10.0 mi WNW 8.1 mph 19.6 mph N/A   Clear
5:47 AM 32.0 °F 23.0 °F 8.6 °F 38% 29.92 in 30.0 mi West 11.5 mph 20.7 mph N/A   Scattered Clouds
6:47 AM 35.6 °F 24.5 °F 8.6 °F 33% 29.90 in 30.0 mi West 20.7 mph 28.8 mph N/A   Scattered Clouds
7:47 AM 37.4 °F 24.8 °F 8.6 °F 30% 29.92 in 30.0 mi West 31.1 mph 40.3 mph N/A   Scattered Clouds
8:47 AM 39.2 °F 29.3 °F 10.4 °F 31% 29.93 in 30.0 mi West 20.7 mph 31.1 mph N/A   Scattered Clouds
9:45 AM 41.0 °F 32.8 °F 10.4 °F 29% 29.94 in 30.0 mi West 16.1 mph 27.6 mph N/A   Scattered Clouds
10:45 AM 44.6 °F 34.2 °F 10.4 °F 25% 29.94 in 30.0 mi West 33.4 mph 40.3 mph N/A   Scattered Clouds
11:47 AM 44.6 °F 34.4 °F 12.2 °F 27% 29.92 in 30.0 mi West 32.2 mph 42.6 mph N/A   Partly Cloudy
12:47 PM 46.4 °F 36.1 °F 12.2 °F 25% 29.91 in 30.0 mi West 38.0 mph 54.1 mph N/A   Partly Cloudy
1:49 PM 44.6 °F 32.8 °F 12.2 °F 27% 29.91 in 50.0 mi West 44.9 mph 54.1 mph N/A   Mostly Cloudy
2:26 PM 46.4 °F 36.1 °F 12.2 °F 25% 29.89 in 50.0 mi West 38.0 mph 58.7 mph N/A   Mostly Cloudy
2:45 PM 44.6 °F 34.4 °F 12.2 °F 27% 29.89 in 60.0 mi West 32.2 mph 56.4 mph N/A   Mostly Cloudy
3:48 PM 44.6 °F 37.2 °F 12.2 °F 27% 29.93 in 60.0 mi WNW 17.3 mph 29.9 mph N/A   Mostly Cloudy
4:46 PM 44.6 °F 39.2 °F 10.4 °F 25% 29.93 in 60.0 mi NW 10.4 mph 28.8 mph N/A   Mostly Cloudy
5:46 PM 41.0 °F 39.0 °F 12.2 °F 31% 29.95 in 30.0 mi North 3.5 mph 17.3 mph N/A   Scattered Clouds
6:25 PM 42.8 °F 32.5 °F 10.4 °F 27% 29.93 in 25.0 mi West 28.8 mph 36.8 mph N/A   Scattered Clouds
6:46 PM 42.8 °F 31.4 °F 12.2 °F 29% 29.94 in 25.0 mi West 35.7 mph 54.1 mph N/A   Scattered Clouds
7:47 PM 42.8 °F 33.8 °F 12.2 °F 29% 29.96 in 25.0 mi WNW 21.9 mph 55.2 mph N/A   Partly Cloudy
9:47 PM 42.8 °F 31.0 °F 10.4 °F 27% 29.95 in 20.0 mi WNW 39.1 mph 57.5 mph N/A   Partly Cloudy
10:12 PM 42.8 °F 35.8 °F 12.2 °F 29% 29.97 in 10.0 mi WNW 13.8 mph 27.6 mph N/A   Clear
10:33 PM 41.0 °F 31.4 °F 12.2 °F 31% 29.99 in 10.0 mi WNW 21.9 mph 36.8 mph N/A   Clear
10:52 PM 41.0 °F 34.3 °F 12.2 °F 31% 30.01 in 10.0 mi NW 11.5 mph 31.1 mph N/A   Clear
11:13 PM 41.0 °F 34.7 °F 14.0 °F 33% 30.02 in 10.0 mi WNW 10.4 mph 23.0 mph N/A   Clear
11:35 PM 41.0 °F 31.6 °F 14.0 °F 33% 30.02 in 10.0 mi West 20.7 mph 31.1 mph N/A   Clear
11:55 PM 39.2 °F 32.5 °F 14.0 °F 36% 30.02 in 10.0 mi West 10.4 mph 18.4 mph N/A   Clear